Skip Page Navigation
NASA JPL Caltech
NASA Logo - Jet Propulsion Laboratory + View the NASA Portal
+ Near-Earth Object (NEO) Program
Search JPL
JPL Home Earth Solar System Stars & Galaxies Technology
JPL Solar System Dynamics
BODIES ORBITS EPHEMERIDES TOOLS PHYSICAL DATA DISCOVERY FAQ SITE MAP
JPL Small-Body Database Browser
Search: [ help ]  
3709 Polypoites (1985 TL3)
Classification: Jupiter Trojan          SPK-ID: 2003709
Ephemeris | Orbit Diagram | Orbital Elements | Physical Parameters | Discovery Circumstances ]

[ hide orbit diagram ]
Orbit Diagram
Note: Make sure you have Java enabled on your browser to see the applet. This applet is provided as a 3D orbit visualization tool. The applet was implemented using 2-body methods, and hence should not be used for determining accurate long-term trajectories (over several years or decades) or planetary encounter circumstances. For accurate long-term ephemerides, please instead use our Horizons system.
Orbit Viewer

Additional Notes: the orbits shown in the applet are color coded. The planets are white lines, and the asteroid/comet is a blue line. The bright white line indicates the portion of the orbit that is above the ecliptic plane, and the darker portion is below the ecliptic plane. Likewise for the asteroid/comet orbit, the light blue indicates the portion above the ecliptic plane, and the dark blue the portion below the ecliptic plane.

Orbit Viewer applet originally written and kindly provided by Osamu Ajiki (AstroArts), and further modified by Ron Baalke (JPL).


Orbital Elements at Epoch 2456400.5 (2013-Apr-18.0) TDB
Reference: JPL 1 (heliocentric ecliptic J2000)
 Element Value Uncertainty (1-sigma)   Units 
e .06143261247509661 9.7677e-08  
a 5.248268242092256 1.8359e-07 AU
q 4.925853413010446 5.8311e-07 AU
i 19.61615727250631 1.0817e-05 deg
node 187.1529217332518 3.0009e-05 deg
peri 248.0032940957837 0.0001028 deg
M 53.43673546388187 9.3193e-05 deg
tp 2455748.631672147618
(2011-Jul-06.13167215)
0.0011464 JED
period 4391.596829216368
12.02
0.00023043
6.309e-07
d
yr
n .08197473811917248 4.3013e-09 deg/d
Q 5.570683071174066 1.9487e-07 AU
  Orbit Determination Parameters
   # obs. used (total)      751  
   data-arc span      12390 days (33.92 yr)  
   first obs. used      1979-04-24  
   last obs. used      2013-03-26  
   planetary ephem.      DE405  
   SB-pert. ephem.      SB405-CPV-2  
   condition code      0  
   fit RMS      .64423  
   data source      ORB  
   producer      Otto Matic  
   solution date      2013-Apr-29 12:59:11  

Additional Information
 Earth MOID = 3.99223 AU 
 T_jup = 2.880 
[ show covariance matrix ]

Ephemeris | Orbit Diagram | Orbital Elements | Physical Parameters | Discovery Circumstances ]

Physical Parameter Table
Parameter Symbol Value Units Sigma Reference Notes
absolute magnitude H 9.00 mag n/a IRAS-A-FPA-3-RDR-IMPS-V6.0 IRAS observations used: 11
diameter diameter 99.09 km 15.1 IRAS-A-FPA-3-RDR-IMPS-V6.0 IRAS observations used: 11
rotation period rot_per 5.71 h n/a Asteroid Lightcurve DataBase (Rev. 2013-May-01) Published Reference List:
[French, L.M.; Stephens, R.D.; Lederer, S.M.; Coley, D.R.; Rohl, D.A. (2011) Minor Planet Bul. 38, 116-120.]
geometric albedo albedo 0.0452   0.018 IRAS-A-FPA-3-RDR-IMPS-V6.0 IRAS observations used: 11

3709 Polypoites (1985 TL3)          Discovered 1985-Oct-14 by Shoemaker, C. at Palomar (675)
Reference: DISCOVERY.DBLast Updated: 2003-08-29

Alternate Designations
 1985 TL3 = 1971 OK1 = 1979 HQ2 = 1985 WK 
Ephemeris | Orbit Diagram | Orbital Elements | Physical Parameters | Discovery Circumstances ]
ABOUT SSD CREDITS/AWARDS PRIVACY/COPYRIGHT GLOSSARY LINKS
FirstGov 2013-May-20 06:52 UT
(server date/time)  
NASA Home Page
Site Manager:   Donald K. Yeomans
Webmaster  Alan B. Chamberlin